STARLINK-34549, 65017

Orbit data source: Space-Track

STARLINK-34549, 65017 is a payload satellite owned by SpaceX/Seattle (US) in LEO that was launched on Wed, 30 Jul 2025 UTC via an FALCON 9 launch vehicle from the Air Force Eastern Test Range (AFETR). Payload-class satellites include a variety of spacecraft equipped with specific instruments for various scientific and technological missions. These include communications satellites like Starlink; space stations such as the ISS; scientific satellites like the Hubble; Earth observation satellites from companies like Planet Labs, Umbra, and HawkEye 360; GPS; miniature CubeSats for education and research; and military/defense satellites.

Loading next visibility...
Identifier
65017, 2025-161C
Orbit
LEO
Country
Flag of USUS
Related business
Manufacturer
SpaceX/Seattle
Mission
Operational spacecraft
Bus & Motor
STARLINK V2MO, Unknown motor
Mass
575 kg wet, ~530 kg dry
Launch date (UTC)
2025-07-30 (1 month ago)
Launch vehicle
FALCON 9
Launch site
Air Force Eastern Test Range (AFETR)
Object type
Payload
Rocket body
Debris
Shape & HBR
Unknown
Radar Cross Section
Large (>1 m²)

Expand to show TLE details & history
Last TLE update: 1 day ago

TLE from 1 day ago
0 STARLINK-34549
1 65017U 25161C   25240.92845197  .00105990  00000-0  18865-2 0  9996
2 65017  53.1602 111.9472 0001129  59.0100 301.1020 15.49331941  5890
Epoch: 2025-08-28T22:16Z
TLE epoch observation values (Epoch: 2025-08-28T22:16:58.25Z)
Latitude
-0°
Longitude
160.32008°
Altitude
419.19 km
Speed
7.661 km/s
True Right ascension
07h 27m 47s
True Declination
0° 00' 00"
Sunlit
Object was in daylight at epoch
Visualization orbit readout
Latitude
Unknown
Longitude
Unknown
Altitude
Unknown
Speed
Unknown
Apparent Right ascension
Unknown
Apparent Declination
Unknown
Sunlit
N/A
Visualization observer readout
Local Sidereal Time
16:58:09
Azimuth
Unknown
Elevation
Unknown
Doppler factor
Unknown
Orbital elements
Apogee altitude
419.705 km
Perigee altitude
418.17 km
Semi-major axis
6,797.075 km
Eccentricity
0.00011
Inclination
53.1602°
RAAN
111.9472°
Arg. of periapsis
59.01°
True anomaly
301.09092°
Mean anomaly
301.102°
Eccentric anomaly
301.09646°
Mean motion
3.87311 °/min
Orbital period
92.95 mins
BSTAR
0.0018865
Loading maneuver chart data...
Computing Atmospheric mass density...
Loading historical data...
Loading historical data...
Loading historical data...
Loading historical data...
Loading historical data...
Loading historical data...
Loading historical data...

Documentation

Showing up to 5 results
|